Time,TemperatureF,DewpointF,PressureIn,WindDirection,WindDirectionDegrees,WindSpeedMPH,WindSpeedGustMPH,Humidity,HourlyPrecipIn,Conditions,Clouds,dailyrainin,SoftwareType,DateUTC
2013-09-07 00:13:00,85.0,48.0,29.67,SSE,153,1.0,7.0,28,0.00,,,0.00,,2013-09-07 05:13:00,
2013-09-07 00:23:00,84.0,46.0,29.68,SSW,194,0.0,6.0,27,0.00,,,0.00,,2013-09-07 05:23:00,
2013-09-07 00:42:00,83.0,48.0,29.69,SSW,194,0.0,1.0,30,0.00,,,0.00,,2013-09-07 05:42:00,
2013-09-07 00:52:00,81.0,48.0,29.69,SSW,194,0.0,2.0,32,0.00,,,0.00,,2013-09-07 05:52:00,
2013-09-07 01:02:00,81.0,48.0,29.69,SSW,194,0.0,2.0,32,0.00,,,0.00,,2013-09-07 06:02:00,
2013-09-07 01:13:00,81.0,48.0,29.69,SSW,194,0.0,2.0,32,0.00,,,0.00,,2013-09-07 06:13:00,
2013-09-07 01:22:00,80.0,47.0,29.69,SE,143,0.0,3.0,32,0.00,,,0.00,,2013-09-07 06:22:00,
2013-09-07 01:42:00,80.0,48.0,29.69,SE,143,0.0,2.0,33,0.00,,,0.00,,2013-09-07 06:42:00,
2013-09-07 01:52:00,78.0,49.0,29.71,SE,143,0.0,1.0,36,0.00,,,0.00,,2013-09-07 06:52:00,
2013-09-07 02:12:00,77.0,48.0,29.71,SW,232,0.0,3.0,36,0.00,,,0.00,,2013-09-07 07:12:00,
2013-09-07 02:22:00,77.0,49.0,29.72,SW,231,1.0,5.0,38,0.00,,,0.00,,2013-09-07 07:22:00,
2013-09-07 02:42:00,75.0,50.0,29.71,SW,219,0.0,1.0,41,0.00,,,0.00,,2013-09-07 07:42:00,
2013-09-07 02:52:00,74.0,49.0,29.71,SW,219,0.0,1.0,42,0.00,,,0.00,,2013-09-07 07:52:00,
2013-09-07 03:12:00,73.0,50.0,29.71,SW,219,0.0,0.0,44,0.00,,,0.00,,2013-09-07 08:12:00,
2013-09-07 03:22:00,72.0,51.0,29.70,SW,219,0.0,0.0,48,0.00,,,0.00,,2013-09-07 08:22:00,
2013-09-07 03:43:00,71.0,51.0,29.70,WSW,253,0.0,2.0,49,0.00,,,0.00,,2013-09-07 08:43:00,
2013-09-07 03:53:00,70.0,50.0,29.70,WSW,253,0.0,0.0,50,0.00,,,0.00,,2013-09-07 08:53:00,
2013-09-07 04:12:00,69.0,50.0,29.71,WSW,253,0.0,0.0,51,0.00,,,0.00,,2013-09-07 09:12:00,
2013-09-07 04:21:00,68.0,50.0,29.70,WSW,254,0.0,2.0,53,0.00,,,0.00,,2013-09-07 09:21:00,
2013-09-07 04:42:00,67.0,50.0,29.70,WSW,254,0.0,2.0,55,0.00,,,0.00,,2013-09-07 09:42:00,
2013-09-07 04:52:00,66.0,50.0,29.69,WSW,254,0.0,1.0,57,0.00,,,0.00,,2013-09-07 09:52:00,
2013-09-07 05:11:00,66.0,51.0,29.69,WSW,254,0.0,2.0,58,0.00,,,0.00,,2013-09-07 10:11:00,
2013-09-07 05:21:00,66.0,50.0,29.69,WSW,254,0.0,0.0,57,0.00,,,0.00,,2013-09-07 10:21:00,
2013-09-07 05:41:00,65.0,49.0,29.69,WSW,254,0.0,1.0,57,0.00,,,0.00,,2013-09-07 10:41:00,
2013-09-07 05:51:00,65.0,50.0,29.69,WSW,254,0.0,0.0,58,0.00,,,0.00,,2013-09-07 10:51:00,
2013-09-07 06:13:00,65.0,50.0,29.69,WSW,254,0.0,0.0,59,0.00,,,0.00,,2013-09-07 11:13:00,
2013-09-07 06:23:00,64.0,50.0,29.70,WSW,254,0.0,0.0,60,0.00,,,0.00,,2013-09-07 11:23:00,
2013-09-07 06:43:00,64.0,50.0,29.70,WSW,254,0.0,0.0,61,0.00,,,0.00,,2013-09-07 11:43:00,
2013-09-07 06:52:00,63.0,50.0,29.71,WSW,254,0.0,0.0,62,0.00,,,0.00,,2013-09-07 11:52:00,
2013-09-07 07:12:00,63.0,51.0,29.71,WSW,254,0.0,0.0,64,0.00,,,0.00,,2013-09-07 12:12:00,
2013-09-07 07:22:00,62.0,51.0,29.71,WSW,254,0.0,1.0,67,0.00,,,0.00,,2013-09-07 12:22:00,
2013-09-07 07:42:00,62.0,51.0,29.71,WSW,254,0.0,0.0,68,0.00,,,0.00,,2013-09-07 12:42:00,
2013-09-07 07:52:00,62.0,52.0,29.71,WSW,254,0.0,0.0,69,0.00,,,0.00,,2013-09-07 12:52:00,
2013-09-07 08:12:00,62.0,52.0,29.72,WSW,254,0.0,1.0,69,0.00,,,0.00,,2013-09-07 13:12:00,
2013-09-07 08:21:00,62.0,52.0,29.71,WSW,254,0.0,0.0,69,0.00,,,0.00,,2013-09-07 13:21:00,
2013-09-07 08:52:00,63.0,52.0,29.72,WSW,254,0.0,0.0,67,0.00,,,0.00,,2013-09-07 13:52:00,
2013-09-07 09:11:00,65.0,53.0,29.72,WSW,254,0.0,0.0,65,0.00,,,0.00,,2013-09-07 14:11:00,
2013-09-07 09:22:00,67.0,55.0,29.72,WSW,254,0.0,0.0,65,0.00,,,0.00,,2013-09-07 14:22:00,
2013-09-07 09:52:00,73.0,56.0,29.72,WSW,254,0.0,1.0,56,0.00,,,0.00,,2013-09-07 14:52:00,
2013-09-07 10:11:00,75.0,58.0,29.73,South,186,1.0,3.0,55,0.00,,,0.00,,2013-09-07 15:11:00,
2013-09-07 10:23:00,77.0,60.0,29.73,SSW,202,1.0,4.0,55,0.00,,,0.00,,2013-09-07 15:23:00,
2013-09-07 10:44:00,79.0,60.0,29.73,SSW,201,0.0,4.0,52,0.00,,,0.00,,2013-09-07 15:44:00,
2013-09-07 10:54:00,81.0,62.0,29.73,SSW,195,1.0,5.0,53,0.00,,,0.00,,2013-09-07 15:54:00,
2013-09-07 11:13:00,83.0,64.0,29.73,West,261,0.0,3.0,53,0.00,,,0.00,,2013-09-07 16:13:00,
2013-09-07 11:24:00,87.0,64.0,29.73,NNW,336,3.0,9.0,46,0.00,,,0.00,,2013-09-07 16:24:00,
2013-09-07 11:43:00,89.0,65.0,29.73,NNW,346,1.0,7.0,45,0.00,,,0.00,,2013-09-07 16:43:00,
2013-09-07 11:53:00,90.0,65.0,29.73,NNE,32,3.0,7.0,44,0.00,,,0.00,,2013-09-07 16:53:00,
2013-09-07 12:12:00,90.0,64.0,29.73,North,9,4.0,9.0,42,0.00,,,0.00,,2013-09-07 17:12:00,
2013-09-07 12:24:00,92.0,65.0,29.72,NNE,16,3.0,8.0,41,0.00,,,0.00,,2013-09-07 17:24:00,
2013-09-07 12:43:00,92.0,65.0,29.72,North,5,5.0,9.0,41,0.00,,,0.00,,2013-09-07 17:43:00,
2013-09-07 12:52:00,92.0,64.0,29.72,NNE,28,3.0,8.0,40,0.00,,,0.00,,2013-09-07 17:52:00,
2013-09-07 13:13:00,92.0,64.0,29.72,North,11,0.0,11.0,40,0.00,,,0.00,,2013-09-07 18:13:00,
2013-09-07 13:22:00,93.0,65.0,29.72,NNE,25,3.0,8.0,40,0.00,,,0.00,,2013-09-07 18:22:00,
2013-09-07 13:43:00,94.0,64.0,29.71,NNW,347,2.0,7.0,37,0.00,,,0.00,,2013-09-07 18:43:00,
2013-09-07 13:52:00,94.0,64.0,29.70,North,355,4.0,10.0,37,0.00,,,0.00,,2013-09-07 18:52:00,
2013-09-07 14:11:00,95.0,64.0,29.70,NW,321,3.0,10.0,36,0.00,,,0.00,,2013-09-07 19:11:00,
2013-09-07 14:22:00,96.0,63.0,29.70,NE,48,4.0,9.0,34,0.00,,,0.00,,2013-09-07 19:22:00,
2013-09-07 14:52:00,96.0,69.0,29.69,NW,325,0.0,8.0,42,0.00,,,0.00,,2013-09-07 19:52:00,
2013-09-07 15:11:00,96.0,65.0,29.69,ENE,64,0.0,7.0,36,0.00,,,0.00,,2013-09-07 20:11:00,
2013-09-07 15:22:00,96.0,64.0,29.68,North,5,2.0,7.0,35,0.00,,,0.00,,2013-09-07 20:22:00,
2013-09-07 15:42:00,97.0,66.0,29.68,NW,319,1.0,6.0,36,0.00,,,0.00,,2013-09-07 20:42:00,
2013-09-07 15:53:00,97.0,62.0,29.68,NW,316,2.0,7.0,32,0.00,,,0.00,,2013-09-07 20:53:00,
2013-09-07 16:12:00,98.0,62.0,29.67,North,360,2.0,7.0,31,0.00,,,0.00,,2013-09-07 21:12:00,
2013-09-07 16:22:00,98.0,56.0,29.67,NNW,336,5.0,12.0,25,0.00,,,0.00,,2013-09-07 21:22:00,
2013-09-07 16:44:00,98.0,59.0,29.66,North,355,1.0,11.0,28,0.00,,,0.00,,2013-09-07 21:44:00,
2013-09-07 16:54:00,99.0,56.0,29.66,North,355,4.0,8.0,24,0.00,,,0.00,,2013-09-07 21:54:00,
2013-09-07 17:13:00,99.0,57.0,29.65,NW,323,3.0,7.0,25,0.00,,,0.00,,2013-09-07 22:13:00,
2013-09-07 17:24:00,98.0,57.0,29.65,NNE,14,5.0,11.0,26,0.00,,,0.00,,2013-09-07 22:24:00,
2013-09-07 17:43:00,98.0,57.0,29.65,NNE,20,4.0,10.0,26,0.00,,,0.00,,2013-09-07 22:43:00,
2013-09-07 17:53:00,98.0,57.0,29.65,NE,40,5.0,11.0,26,0.00,,,0.00,,2013-09-07 22:53:00,
2013-09-07 18:12:00,97.0,55.0,29.65,North,5,4.0,8.0,25,0.00,,,0.00,,2013-09-07 23:12:00,
2013-09-07 18:23:00,97.0,59.0,29.64,NNE,13,4.0,11.0,29,0.00,,,0.00,,2013-09-07 23:23:00,
2013-09-07 18:42:00,96.0,62.0,29.64,North,5,5.0,11.0,33,0.00,,,0.00,,2013-09-07 23:42:00,
2013-09-07 18:53:00,95.0,63.0,29.64,NE,51,6.0,9.0,35,0.00,,,0.00,,2013-09-07 23:53:00,
2013-09-07 19:11:00,94.0,64.0,29.64,NE,38,4.0,9.0,37,0.00,,,0.00,,2013-09-08 00:11:00,
2013-09-07 19:22:00,93.0,66.0,29.64,NNE,17,4.0,11.0,41,0.00,,,0.00,,2013-09-08 00:22:00,
2013-09-07 19:42:00,92.0,67.0,29.64,NNE,21,6.0,10.0,44,0.00,,,0.00,,2013-09-08 00:42:00,
2013-09-07 19:52:00,90.0,67.0,29.64,NE,34,5.0,9.0,47,0.00,,,0.00,,2013-09-08 00:52:00,
2013-09-07 20:11:00,89.0,68.0,29.65,NE,46,3.0,9.0,50,0.00,,,0.00,,2013-09-08 01:11:00,
2013-09-07 20:22:00,87.0,68.0,29.65,North,355,3.0,8.0,54,0.00,,,0.00,,2013-09-08 01:22:00,
2013-09-07 20:42:00,85.0,68.0,29.65,NE,39,3.0,11.0,56,0.00,,,0.00,,2013-09-08 01:42:00,
2013-09-07 20:52:00,84.0,68.0,29.66,NNE,16,5.0,9.0,59,0.00,,,0.00,,2013-09-08 01:52:00,
2013-09-07 21:11:00,82.0,67.0,29.66,NNE,17,2.0,7.0,61,0.00,,,0.00,,2013-09-08 02:11:00,
2013-09-07 21:23:00,81.0,68.0,29.67,NE,36,3.0,7.0,64,0.00,,,0.00,,2013-09-08 02:23:00,
2013-09-07 21:43:00,80.0,68.0,29.67,NNE,17,2.0,7.0,67,0.00,,,0.00,,2013-09-08 02:43:00,
2013-09-07 21:52:00,78.0,67.0,29.67,NNE,22,3.0,5.0,68,0.00,,,0.00,,2013-09-08 02:52:00,
2013-09-07 22:12:00,77.0,66.0,29.68,NNE,25,2.0,5.0,70,0.00,,,0.00,,2013-09-08 03:12:00,
2013-09-07 22:23:00,76.0,66.0,29.68,NNE,12,0.0,5.0,72,0.00,,,0.00,,2013-09-08 03:23:00,
2013-09-07 22:44:00,76.0,67.0,29.68,North,5,1.0,4.0,74,0.00,,,0.00,,2013-09-08 03:44:00,
2013-09-07 22:54:00,75.0,67.0,29.68,NNW,344,1.0,5.0,75,0.00,,,0.00,,2013-09-08 03:54:00,
2013-09-07 23:02:00,-999.0,-99.9,29.69,NNW,346,0.0,5.0,-999,-99.99,,,-99.99,,2013-09-08 04:02:00,
2013-09-07 23:14:00,74.0,66.0,29.69,NNW,346,0.0,5.0,77,0.00,,,0.00,,2013-09-08 04:14:00,
2013-09-07 23:24:00,74.0,67.0,29.69,North,351,0.0,5.0,79,0.00,,,0.00,,2013-09-08 04:24:00,
2013-09-07 23:43:00,73.0,67.0,29.70,North,355,0.0,4.0,81,0.00,,,0.00,,2013-09-08 04:43:00,
2013-09-07 23:54:00,72.0,66.0,29.70,North,355,0.0,1.0,82,0.00,,,0.00,,2013-09-08 04:54:00,